Regional Weather Roundup
Issued by NWS

Home | Current Version | Previous Version | Graphics & Text | Print | Product List | Glossary On
Versions: 1 2 3 4 5 6 7 8 9 10 11 12 13 14 15 16 17 18 19 20 21 22 23 24 25 26 27 28 29 30 31 32 33 34 35 36 37 38 39 40 41 42 43 44 45 46 47 48 49 50
000
ASUS43 KLSX 281757
RWRMO

WEATHER SUMMARY FOR MISSOURI
NATIONAL WEATHER SERVICE SPRINGFIELD MO
100 PM CDT FRI AUG 28 2015

NOTE: "FAIR" INDICATES FEW OR NO CLOUDS BELOW 12,000 FEET WITH NO
       SIGNIFICANT WEATHER AND/OR OBSTRUCTIONS TO VISIBILITY.
       CURRENT SKY AND/OR WEATHER CONDITIONS ARE NOT AVAILABLE FOR
       CHILLICOTHE AND FARMINGTON.

MOZ001>031-035>038-043-044-053-054-281900-
...NORTHERN AND WESTERN MISSOURI...

CITY           SKY/WX    TMP DP  RH WIND       PRES   REMARKS
KANSAS CTY INT PTSUNNY   74  65  73 S15G21    29.95F
6HR MIN TEMP:  68; 6HR MAX TEMP:  75; 6HR PCP: TRACE;

LEE`S SUMMIT   CLOUDY    75  65  70 S14G22    29.98F
6HR MIN TEMP:  68; 6HR MAX TEMP:  75;

ST JOSEPH      PTSUNNY   77  68  73 S17       29.91F
6HR MIN TEMP:  69; 6HR MAX TEMP:  77; 6HR PCP:  0.02;


$$
MOZ066>068-077>081-088>096-101>105-281900-
...SOUTHWEST MISSOURI...

CITY           SKY/WX    TMP DP  RH WIND       PRES   REMARKS
SPRINGFIELD    CLOUDY    78  62  57 S15       30.06F
6HR MIN TEMP:  63; 6HR MAX TEMP:  78;

JOPLIN         CLOUDY    74  64  71 S10       30.03F
6HR MIN TEMP:  67; 6HR MAX TEMP:  76;


$$
MOZ032>034-039>042-045>050-055>058-069>072-281900-
...CENTRAL MISSOURI...

CITY           SKY/WX    TMP DP  RH WIND       PRES   REMARKS
COLUMBIA       NOT AVBL
JEFFERSON CITY CLOUDY    77  60  55 SE10      30.04F
6HR MIN TEMP:  62; 6HR MAX TEMP:  77;

ROLLA          PTSUNNY   79  60  52 S14G21    30.07F
6HR MIN TEMP:  59; 6HR MAX TEMP:  80; 6HR PCP: TRACE;

SEDALIA        CLOUDY    78  64  61 S10       30.03F
6HR MIN TEMP:  65; 6HR MAX TEMP:  79;


$$
MOZ051-052-059>065-281900-
...EAST CENTRAL MISSOURI...

CITY           SKY/WX    TMP DP  RH WIND       PRES   REMARKS
ST LOUIS INTL  CLOUDY    80  58  46 S12       30.09F
6HR MIN TEMP:  64; 6HR MAX TEMP:  81;


$$
MOZ072>076-082>087-097>100-106>115-281900-
...SOUTH CENTRAL AND SOUTHEAST MISSOURI...

CITY           SKY/WX    TMP DP  RH WIND       PRES   REMARKS
CAPE GIRARDEAU SUNNY     81  60  48 SE7       30.09F
6HR MIN TEMP:  55; 6HR MAX TEMP:  82;

POPLAR BLUFF   MOSUNNY   79  59  50 SW6       30.09F
6HR MIN TEMP:  57; 6HR MAX TEMP:  81;

WEST PLAINS    SUNNY     77  58  51 SE8       30.11F
6HR MIN TEMP:  56; 6HR MAX TEMP:  77;


$$


USA.gov is the U.S. government's official web portal to all federal, state and local government web resources and services.